Weather History for Dothan, AL

Change the Weather History Date:

Wednesday, July 10, 2013

  Actual Average Record
Temperature  
Mean Temperature 80 °F 82 °F  
Max Temperature 89 °F 92 °F 101 °F (1966)
Min Temperature 71 °F 72 °F 62 °F (1947)
Cooling Degree Days 15 17  
Month to date cooling degree days 127 169  
Year to date cooling degree days 959 1026  
Since 1 June cooling degree days 587 613  
Growing Degree Days 30 (Base 50)    
Moisture  
Dew Point 72 °F    
Average Humidity 90    
Maximum Humidity 100    
Minimum Humidity 59    
Precipitation  
Precipitation 2.26 in 0.21 in 2.64 in (2005)
Month to date precipitation 10.68 2.09  
Year to date precipitation 28.16 30.05  
Sea Level Pressure  
Sea Level Pressure 30.08 in    
Wind  
Wind Speed 6 mph (WNW)    
Max Wind Speed 18 mph    
Max Gust Speed 26 mph    
Visibility 7 miles    
Events Fog , Rain , Thunderstorm    
T = Trace of Precipitation, MM = Missing Value Source: NWS Daily Summary

Daily Weather History Graph

Daily Weather History Graph

Search for Another Location

Airport:

Trip Planner

Search our weather history database for the weather conditions in past years. The results will help you decide how hot, cold, wet, or windy it might be!

Date:

Astronomy

Jul. 10, 2013 Rise Set
Actual Time 5:45 AM CDT 7:48 PM CDT
Civil Twilight 5:17 AM CDT 8:16 PM CDT
Nautical Twilight 4:44 AM CDT 8:49 PM CDT
Astronomical Twilight 4:08 AM CDT 9:25 PM CDT
Moon 7:54 AM CDT (7/10) 9:11 PM CDT (7/10)
Length of Visible Light 14h 58m
Length of Day
14h 03m
Waxing Crescent, 5% of the Moon is Illuminated
Jul 10
Waxing Crescent
Jul 15
First Quarter
Jul 22
Full
Jul 29
Last Quarter
Aug 6
New

Hourly Weather History & Observations

Time (CDT) Temp. Heat Index Dew Point Humidity Pressure Visibility Wind Dir Wind Speed Gust Speed Precip Events Conditions
12:53 AM 78.1 °F - 73.9 °F 87% 30.12 in 10.0 mi West 4.6 mph - N/A   Clear
1:53 AM 77.0 °F - 73.9 °F 90% 30.10 in 10.0 mi West 4.6 mph - N/A   Clear
2:53 AM 75.9 °F - 73.9 °F 94% 30.10 in 10.0 mi West 3.5 mph - N/A   Clear
3:53 AM 75.9 °F - 73.0 °F 91% 30.09 in 10.0 mi Calm Calm - N/A   Clear
4:53 AM 75.0 °F - 73.0 °F 94% 30.10 in 10.0 mi NW 3.5 mph - N/A   Clear
5:53 AM 75.0 °F - 73.0 °F 94% 30.12 in 8.0 mi NW 3.5 mph - N/A   Scattered Clouds
6:53 AM 75.9 °F - 73.0 °F 91% 30.12 in 8.0 mi WNW 5.8 mph - N/A   Mostly Cloudy
7:53 AM 77.0 °F - 73.9 °F 90% 30.13 in 9.0 mi NW 5.8 mph - N/A   Overcast
8:53 AM 79.0 °F - 73.9 °F 84% 30.13 in 10.0 mi NW 4.6 mph - N/A   Overcast
9:53 AM 81.0 °F 86.7 °F 75.0 °F 82% 30.13 in 10.0 mi NNW 5.8 mph - N/A   Overcast
10:53 AM 84.9 °F 93.3 °F 75.0 °F 72% 30.12 in 10.0 mi WNW 6.9 mph - N/A   Scattered Clouds
11:53 AM 86.0 °F 93.0 °F 73.0 °F 65% 30.08 in 10.0 mi WNW 6.9 mph - N/A   Partly Cloudy
12:53 PM 88.0 °F 94.7 °F 72.0 °F 59% 30.06 in 10.0 mi SW 3.5 mph - N/A   Scattered Clouds
1:45 PM 86.0 °F 93.4 °F 73.4 °F 66% 30.07 in 10.0 mi SSW 8.1 mph - N/A Thunderstorm Mostly Cloudy
1:53 PM 86.0 °F 93.0 °F 73.0 °F 65% 30.05 in 10.0 mi South 8.1 mph - N/A Thunderstorm Mostly Cloudy
2:37 PM 78.8 °F - 75.2 °F 89% 30.08 in 2.5 mi Variable 3.5 mph - 0.07 in Rain , Thunderstorm Light Thunderstorms and Rain
2:39 PM 78.8 °F - 73.4 °F 83% 30.10 in 1.5 mi North 12.7 mph 18.4 mph 0.15 in Rain , Thunderstorm Heavy Thunderstorms and Rain
2:47 PM 71.6 °F - 69.8 °F 94% 30.09 in 0.8 mi North 13.8 mph 21.9 mph 0.42 in Rain , Thunderstorm Heavy Thunderstorms and Rain
2:53 PM 72.0 °F - 71.1 °F 97% 30.08 in 0.5 mi North 18.4 mph 26.5 mph 0.65 in Fog , Rain , Thunderstorm Heavy Thunderstorms and Rain
3:15 PM 71.6 °F - 69.8 °F 94% 30.07 in 1.0 mi NNE 8.1 mph 21.9 mph 0.74 in Rain , Thunderstorm Heavy Thunderstorms and Rain
3:26 PM 71.6 °F - 69.8 °F 94% 30.06 in 0.8 mi Calm Calm - 1.05 in Rain , Thunderstorm Heavy Thunderstorms and Rain
3:35 PM 71.6 °F - 69.8 °F 94% 30.05 in 1.5 mi Calm Calm - 1.25 in Rain , Thunderstorm Heavy Rain
3:38 PM 71.6 °F - 69.8 °F 94% 30.05 in 3.0 mi South 4.6 mph - 1.30 in Rain , Thunderstorm Heavy Rain
3:53 PM 72.0 °F - 71.1 °F 97% 30.04 in 9.0 mi SSW 4.6 mph - 1.32 in Rain , Thunderstorm Light Rain
4:17 PM 73.4 °F - 71.6 °F 94% 30.09 in 10.0 mi West 9.2 mph 17.3 mph 0.00 in Rain Light Rain
4:53 PM 73.9 °F - 72.0 °F 93% 30.08 in 10.0 mi WNW 9.2 mph - 0.02 in Rain , Thunderstorm Light Rain
5:11 PM 73.4 °F - 71.6 °F 94% 30.09 in 10.0 mi WNW 15.0 mph - 0.00 in   Mostly Cloudy
5:21 PM 73.4 °F - 71.6 °F 94% 30.09 in 2.0 mi NW 13.8 mph - 0.06 in Rain Heavy Rain
5:32 PM 73.4 °F - 71.6 °F 94% 30.10 in 5.0 mi North 13.8 mph - 0.08 in Rain Light Rain
5:35 PM 73.4 °F - 71.6 °F 94% 30.10 in 1.5 mi NNW 15.0 mph - 0.13 in Rain Heavy Rain
5:49 PM 73.4 °F - 71.6 °F 94% 30.11 in 3.0 mi North 5.8 mph - 0.27 in Rain Rain
5:53 PM 73.0 °F - 72.0 °F 96% 30.09 in 5.0 mi North 4.6 mph - 0.27 in Rain Light Rain
6:04 PM 73.4 °F - 71.6 °F 94% 30.09 in 10.0 mi North 3.5 mph - 0.00 in Rain , Thunderstorm Light Rain
6:19 PM 73.4 °F - 71.6 °F 94% 30.09 in 10.0 mi WNW 6.9 mph - 0.00 in   Partly Cloudy
6:53 PM 73.0 °F - 72.0 °F 96% 30.06 in 10.0 mi SW 5.8 mph - 0.00 in   Partly Cloudy
7:07 PM 73.4 °F - 71.6 °F 94% 30.06 in 10.0 mi WSW 3.5 mph - N/A   Mostly Cloudy
7:25 PM 73.4 °F - 71.6 °F 94% 30.05 in 10.0 mi Calm Calm - N/A   Scattered Clouds
7:53 PM 73.0 °F - 71.1 °F 93% 30.03 in 10.0 mi Calm Calm - N/A   Clear
8:53 PM 73.0 °F - 72.0 °F 96% 30.02 in 10.0 mi Calm Calm - N/A   Clear
9:49 PM 71.6 °F - 71.6 °F 100% 30.02 in 9.0 mi South 3.5 mph - N/A   Partly Cloudy
9:53 PM 72.0 °F - 72.0 °F 100% 30.01 in 8.0 mi SSE 4.6 mph - N/A   Scattered Clouds
10:36 PM 73.4 °F - 71.6 °F 94% 30.03 in 7.0 mi South 4.6 mph - N/A   Mostly Cloudy
10:53 PM 72.0 °F - 71.1 °F 97% 30.01 in 9.0 mi South 8.1 mph - N/A   Overcast
11:53 PM 72.0 °F - 71.1 °F 97% 30.03 in 10.0 mi SSW 6.9 mph - N/A   Overcast